Location: LDNL
(36.4545°S, 141.6685°E)
Time: 03:59:40
(UTC+11:00)

Vanguard 2 - Pass Details

Date: 19 August 2022
Orbit: 552 x 2934 km, 32.9° (Epoch: 06 October)

Event Time Altitude Azimuth Distance (km) Brightness Sun altitude
Rises 19:01:49 0° 265° (W) 6,775 14.2 -12.4°
Reaches altitude 10° 19:06:33 10° 266° (W) 5,659 13.3 -13.4°
Maximum altitude 19:23:03 70° 344° (NNW) 2,336 9.9 -16.7°
Enters shadow 19:31:51 19° 63° (ENE) 3,341 10.2 -18.5°
Drops below altitude 10° 19:33:40 10° 65° (ENE) 3,804 - -18.8°
Sets 19:36:13 0° 68° (ENE) 4,517 - -19.3°
